Hourly Weather Cardiff

Today, 12 August, Wednesday

Time Temperature Precipitation Wind Pressure Humidity
00:00 +22°C° 0 mm 1 mps 758 mmHg 88%
01:00 +22°C° 0.1 mm 1 mps 758 mmHg 88%
02:00 +22°C° 0.1 mm 1 mps 758 mmHg 88%
03:00 +22°C° 0.1 mm 1 mps 757 mmHg 88%
04:00 +22°C° 0 mm 1 mps 757 mmHg 89%
05:00 +22°C° 0 mm 1 mps 757 mmHg 90%
06:00 +22°C° 0 mm 1 mps 758 mmHg 90%
07:00 +24°C° 0.1 mm 1 mps 758 mmHg 85%
08:00 +25°C° 0.1 mm 2 mps 758 mmHg 81%
09:00 +26°C° 0.1 mm 2 mps 758 mmHg 76%
10:00 +27°C° 0 mm 2 mps 758 mmHg 70%
11:00 +29°C° 0 mm 2 mps 758 mmHg 64%
12:00 +30°C° 0 mm 2 mps 758 mmHg 58%
13:00 +30°C° 0.1 mm 2 mps 757 mmHg 57%
14:00 +31°C° 0.1 mm 2 mps 757 mmHg 55%
15:00 +31°C° 0.1 mm 2 mps 757 mmHg 53%
16:00 +31°C° 0.5 mm 2 mps 756 mmHg 57%
17:00 +30°C° 0.5 mm 2 mps 756 mmHg 61%
18:00 +30°C° 0.5 mm 2 mps 756 mmHg 65%
19:00 +28°C° 1.1 mm 2 mps 756 mmHg 72%
20:00 +26°C° 1.1 mm 2 mps 756 mmHg 78%
21:00 +24°C° 1.1 mm 1 mps 756 mmHg 84%
22:00 +23°C° 0.6 mm 2 mps 756 mmHg 86%
23:00 +23°C° 0.6 mm 2 mps 756 mmHg 88%

Tomorrow, 13 August, Thursday

Time Temperature Precipitation Wind Pressure Humidity
00:00 +22°C° 0.6 mm 3 mps 756 mmHg 90%
01:00 +21°C° 0.3 mm 3 mps 756 mmHg 91%
02:00 +21°C° 0.3 mm 2 mps 756 mmHg 92%
03:00 +20°C° 0.3 mm 2 mps 756 mmHg 93%
04:00 +20°C° 0 mm 2 mps 756 mmHg 93%
05:00 +20°C° 0 mm 2 mps 756 mmHg 93%
06:00 +20°C° 0 mm 2 mps 756 mmHg 94%
07:00 +21°C° 0 mm 2 mps 756 mmHg 90%
08:00 +23°C° 0 mm 2 mps 756 mmHg 87%
09:00 +24°C° 0 mm 2 mps 756 mmHg 84%
10:00 +24°C° 0 mm 2 mps 756 mmHg 83%
11:00 +25°C° 0 mm 3 mps 756 mmHg 83%
12:00 +25°C° 0 mm 3 mps 756 mmHg 82%
13:00 +25°C° 0.6 mm 2 mps 756 mmHg 80%
14:00 +26°C° 0.6 mm 2 mps 756 mmHg 79%
15:00 +27°C° 0.6 mm 2 mps 756 mmHg 77%
16:00 +26°C° 2.6 mm 2 mps 756 mmHg 81%
17:00 +25°C° 2.6 mm 2 mps 756 mmHg 84%
18:00 +25°C° 2.6 mm 2 mps 756 mmHg 88%
19:00 +24°C° 2.3 mm 2 mps 756 mmHg 90%
20:00 +22°C° 2.3 mm 3 mps 756 mmHg 92%
21:00 +21°C° 2.3 mm 3 mps 756 mmHg 94%
22:00 +21°C° 0.1 mm 3 mps 756 mmHg 94%
23:00 +20°C° 0.1 mm 3 mps 756 mmHg 94%

Day after tomorrow, 14 August, Friday

Time Temperature Precipitation Wind Pressure Humidity
00:00 +20°C° 0.1 mm 3 mps 756 mmHg 94%
01:00 +20°C° 0.3 mm 3 mps 756 mmHg 94%
02:00 +19°C° 0.3 mm 2 mps 756 mmHg 94%
03:00 +19°C° 0.3 mm 2 mps 756 mmHg 95%
04:00 +19°C° 0.1 mm 2 mps 756 mmHg 95%
05:00 +19°C° 0.1 mm 2 mps 756 mmHg 95%
06:00 +19°C° 0.1 mm 2 mps 756 mmHg 95%
07:00 +19°C° 0.1 mm 2 mps 757 mmHg 94%
08:00 +19°C° 0.1 mm 2 mps 757 mmHg 93%
09:00 +21°C° 0.1 mm 1 mps 757 mmHg 92%
10:00 +21°C° 0 mm 1 mps 757 mmHg 91%
11:00 +21°C° 0 mm 1 mps 757 mmHg 90%
12:00 +21°C° 0 mm 1 mps 758 mmHg 89%
13:00 +22°C° 0.1 mm 1 mps 758 mmHg 89%
14:00 +22°C° 0.1 mm 1 mps 758 mmHg 88%
15:00 +22°C° 0.1 mm 1 mps 758 mmHg 88%
16:00 +22°C° 0 mm 1 mps 758 mmHg 88%
17:00 +21°C° 0 mm 2 mps 758 mmHg 89%
18:00 +21°C° 0 mm 2 mps 758 mmHg 89%
19:00 +20°C° 0 mm 2 mps 758 mmHg 90%
20:00 +20°C° 0 mm 2 mps 759 mmHg 91%
21:00 +20°C° 0 mm 2 mps 759 mmHg 93%
22:00 +20°C° 0 mm 2 mps 759 mmHg 93%
23:00 +19°C° 0 mm 2 mps 759 mmHg 93%

15 August, Saturday

Time Temperature Precipitation Wind Pressure Humidity
00:00 +19°C° 0 mm 2 mps 759 mmHg 93%
01:00 +19°C° 0 mm 2 mps 759 mmHg 93%
02:00 +19°C° 0 mm 2 mps 759 mmHg 93%
03:00 +19°C° 0 mm 2 mps 759 mmHg 93%
04:00 +19°C° 0 mm 2 mps 759 mmHg 93%
05:00 +19°C° 0 mm 2 mps 758 mmHg 93%
06:00 +18°C° 0 mm 2 mps 758 mmHg 93%
07:00 +19°C° 0.1 mm 2 mps 759 mmHg 92%
08:00 +19°C° 0.1 mm 2 mps 759 mmHg 91%
09:00 +19°C° 0.1 mm 2 mps 759 mmHg 90%
10:00 +19°C° 0.1 mm 2 mps 759 mmHg 89%
11:00 +21°C° 0.1 mm 1 mps 759 mmHg 88%
12:00 +21°C° 0.1 mm 1 mps 759 mmHg 88%
13:00 +20°C° 0.1 mm 2 mps 759 mmHg 87%
14:00 +21°C° 0.1 mm 2 mps 759 mmHg 86%
15:00 +21°C° 0.1 mm 2 mps 758 mmHg 86%
16:00 +21°C° 0.1 mm 2 mps 758 mmHg 87%
17:00 +21°C° 0.1 mm 2 mps 758 mmHg 88%
18:00 +21°C° 0.1 mm 2 mps 758 mmHg 89%
19:00 +20°C° 0 mm 2 mps 758 mmHg 91%
20:00 +19°C° 0 mm 2 mps 758 mmHg 93%
21:00 +19°C° 0 mm 1 mps 758 mmHg 94%
22:00 +18°C° 0 mm 2 mps 758 mmHg 95%
23:00 +18°C° 0 mm 2 mps 757 mmHg 95%

16 August, Sunday

Time Temperature Precipitation Wind Pressure Humidity
00:00 +18°C° 0 mm 2 mps 757 mmHg 95%
01:00 +18°C° 0.1 mm 2 mps 757 mmHg 95%
02:00 +18°C° 0.1 mm 2 mps 756 mmHg 96%
03:00 +18°C° 0.1 mm 2 mps 756 mmHg 96%
04:00 +18°C° 0.1 mm 2 mps 756 mmHg 95%
05:00 +18°C° 0.1 mm 2 mps 756 mmHg 95%
06:00 +18°C° 0.1 mm 2 mps 755 mmHg 95%
07:00 +19°C° 0 mm 3 mps 755 mmHg 94%
08:00 +19°C° 0 mm 3 mps 755 mmHg 92%
09:00 +19°C° 0 mm 3 mps 755 mmHg 91%
10:00 +20°C° 0.9 mm 3 mps 755 mmHg 91%
11:00 +20°C° 0.9 mm 3 mps 755 mmHg 90%
12:00 +20°C° 0.9 mm 3 mps 754 mmHg 90%
13:00 +21°C° 0.2 mm 3 mps 754 mmHg 83%
14:00 +22°C° 0.2 mm 3 mps 754 mmHg 76%
15:00 +24°C° 0.2 mm 3 mps 753 mmHg 69%
16:00 +22°C° 0.5 mm 3 mps 753 mmHg 73%
17:00 +22°C° 0.5 mm 3 mps 753 mmHg 76%
18:00 +21°C° 0.5 mm 3 mps 753 mmHg 80%
19:00 +20°C° 0.1 mm 3 mps 753 mmHg 84%
20:00 +18°C° 0.1 mm 3 mps 753 mmHg 89%
21:00 +17°C° 0.1 mm 2 mps 753 mmHg 94%
22:00 +16°C° 0 mm 2 mps 752 mmHg 95%
23:00 +16°C° 0 mm 2 mps 752 mmHg 95%

17 August, Monday

Time Temperature Precipitation Wind Pressure Humidity
00:00 +16°C° 0 mm 2 mps 752 mmHg 95%
01:00 +16°C° 0 mm 3 mps 752 mmHg 96%
02:00 +16°C° 0 mm 3 mps 752 mmHg 96%
03:00 +16°C° 0 mm 3 mps 752 mmHg 96%
04:00 +14°C° 0 mm 3 mps 752 mmHg 96%
05:00 +14°C° 0 mm 3 mps 752 mmHg 96%
06:00 +15°C° 0 mm 2 mps 751 mmHg 96%
07:00 +16°C° 0 mm 3 mps 752 mmHg 91%
08:00 +18°C° 0 mm 3 mps 752 mmHg 86%
09:00 +19°C° 0 mm 3 mps 752 mmHg 81%
10:00 +19°C° 0.1 mm 4 mps 752 mmHg 78%
11:00 +20°C° 0.1 mm 4 mps 752 mmHg 74%
12:00 +21°C° 0.1 mm 4 mps 752 mmHg 70%
13:00 +21°C° 0.3 mm 5 mps 752 mmHg 72%
14:00 +20°C° 0.3 mm 5 mps 751 mmHg 74%
15:00 +20°C° 0.3 mm 6 mps 751 mmHg 76%
16:00 +20°C° 0.1 mm 6 mps 751 mmHg 78%
17:00 +19°C° 0.1 mm 6 mps 751 mmHg 80%
18:00 +17°C° 0.1 mm 6 mps 752 mmHg 82%
19:00 +17°C° 0 mm 5 mps 752 mmHg 85%
20:00 +16°C° 0 mm 5 mps 752 mmHg 89%
21:00 +15°C° 0 mm 4 mps 752 mmHg 93%
22:00 +15°C° 0 mm 4 mps 752 mmHg 94%
23:00 +14°C° 0 mm 4 mps 751 mmHg 94%
Show more